Theta_e
349 352 344 350 342 337 332 340 343 343 340 335 334 338 342 342 342 343 343 343 341 341 343 343 342 340 339 337 337 339 340 340 340 339 338 336 335 335 334 333 331 332 334
348 351 343 343 336 333 328 340 343 341 339 340 336 339 340 341 342 343 342 343 342 344 345 344 344 343 341 340 338 338 338 335 335 336 338 337 336 335 335 335 332 333 334
351 350 346 338 340 328 320 328 342 341 339 336 333 340 342 342 343 342 342 341 343 344 344 344 341 339 339 338 338 338 338 338 337 333 333 336 336 335 335 335 336 333 333
351 349 350 339 335 324 318 318 326 332 333 338 341 341 341 340 340 338 341 343 344 344 344 338 336 336 336 335 336 336 336 337 338 338 337 336 336 334 335 334 334 331 330
350 348 351 337 330 324 317 316 321 324 329 337 338 337 340 339 336 337 339 339 339 338 335 336 335 334 334 334 334 334 335 337 337 342 342 337 338 335 333 334 334 332 328
349 348 351 338 330 325 319 318 319 321 328 333 336 336 339 337 334 334 333 332 333 333 333 333 333 333 333 333 334 334 334 334 338 341 340 340 336 334 335 333 329 331 329
348 348 349 337 329 327 322 320 322 325 330 333 333 335 337 333 332 332 332 332 333 333 333 333 333 333 333 333 334 335 335 336 342 340 341 341 337 333 334 334 336 333 331
348 348 350 340 330 328 325 322 324 327 332 333 330 333 330 331 330 332 334 334 334 334 333 333 333 333 333 333 333 333 333 334 341 341 340 340 337 333 334 336 332 332 333
347 348 350 348 337 329 328 325 324 327 330 328 329 330 331 330 331 331 332 332 332 331 331 331 332 333 333 333 333 333 334 335 342 342 340 338 337 336 333 337 335 332 333
347 347 349 349 345 344 343 329 327 326 328 328 328 329 331 332 331 330 331 331 331 331 332 333 333 334 334 333 333 334 334 337 345 344 345 343 337 336 338 336 337 335 333
346 347 347 348 347 344 344 341 332 329 328 329 331 330 333 341 338 336 336 331 331 332 333 335 336 338 337 336 331 331 332 343 343 344 346 344 343 342 338 340 339 338 336
345 346 346 347 347 345 343 344 345 344 343 343 342 341 341 340 336 338 334 330 331 334 337 340 341 342 345 347 346 344 344 344 344 345 345 342 341 343 343 341 342 342 340
343 345 346 347 347 346 343 344 344 343 344 344 343 340 342 340 339 339 341 340 340 343 346 346 347 347 348 347 346 346 346 346 345 346 345 342 341 340 339 341 344 344 344
343 344 345 346 346 345 344 343 343 340 342 342 335 342 343 339 340 340 339 341 343 346 345 346 346 347 347 346 345 344 343 345 346 347 346 342 341 341 337 336 345 346 345
341 343 344 345 344 343 340 343 342 335 338 341 333 337 342 341 341 340 339 339 342 344 343 344 345 346 346 345 343 340 343 345 347 346 346 343 341 339 337 337 338 343 343
339 341 343 344 343 341 335 340 342 338 341 341 341 340 335 340 340 339 339 340 341 341 343 344 345 343 343 342 341 344 344 344 341 341 345 345 339 338 337 336 337 339 341
338 340 342 343 341 335 337 335 341 340 339 340 341 334 332 333 338 335 341 342 341 341 340 341 342 341 342 343 344 344 344 344 343 343 344 342 342 338 335 334 333 333 336
341 340 342 342 342 334 338 332 340 339 337 335 338 336 334 334 337 338 342 343 343 343 345 345 345 345 345 344 344 344 344 343 343 343 341 339 337 337 336 332 330 330 333
343 341 340 341 342 341 335 336 331 334 335 336 335 338 340 340 341 342 343 344 343 343 343 343 342 340 340 337 336 335 339 339 339 337 337 336 337 336 335 334 331 330 330
343 342 340 340 342 337 338 336 340 341 341 342 341 342 343 345 342 343 341 341 342 341 340 339 339 338 336 335 335 336 337 336 335 336 334 335 334 334 334 335 335 335 333
344 344 342 341 340 338 338 340 341 341 342 343 346 345 347 345 343 342 340 339 340 341 339 338 339 338 338 336 336 334 336 333 334 333 333 333 332 332 333 334 335 336 335
344 344 344 342 341 339 339 340 342 343 342 345 345 344 344 343 341 341 340 339 337 337 336 335 336 336 335 333 333 334 334 333 333 329 332 330 328 329 331 333 335 337 337
346 344 344 343 343 340 341 343 341 342 342 340 339 340 341 341 340 337 333 331 328 327 328 328 329 331 329 332 331 330 331 331 328 330 328 326 326 327 329 331 334 336 337
349 346 344 345 345 345 345 344 342 344 344 340 336 334 333 332 330 328 325 320 318 322 324 323 322 324 325 325 329 327 328 330 330 327 323 324 324 325 327 329 334 335 335
349 348 346 347 348 347 346 345 345 345 342 337 334 329 326 322 321 318 314 313 316 319 317 320 318 320 322 322 323 324 325 325 326 325 324 322 321 322 322 328 333 332 331
348 347 347 348 347 346 347 346 345 342 337 334 330 325 321 319 319 317 313 311 311 312 312 313 314 319 321 322 322 322 321 322 322 322 323 321 321 319 320 324 329 324 322
Wind_Speed
15 18 17 15 14 14 15 17 18 18 18 17 16 16 17 17 16 17 16 17 16 16 17 17 17 18 17 17 17 16 15 14 13 13 11 11 11 11 9 9 9 10 9
22 21 19 15 14 14 15 17 17 17 17 16 17 18 19 19 18 16 15 15 16 16 15 15 15 15 14 14 14 15 15 14 12 10 10 9 8 8 7 8 9 8 8
25 23 20 17 15 14 15 17 17 16 17 17 18 18 18 18 18 16 16 15 15 14 14 14 14 13 12 11 10 10 10 10 10 10 10 8 6 6 6 5 7 7 6
23 20 17 17 15 14 14 16 17 17 17 17 18 17 17 17 16 16 15 15 14 13 12 12 11 11 10 9 8 8 7 7 6 6 5 5 4 3 4 5 5 5 5
22 19 18 17 15 14 14 16 17 18 18 17 16 17 16 16 15 15 14 13 12 11 10 10 9 8 7 6 6 6 6 6 6 6 3 1 2 0 3 3 2 3 6
20 18 17 16 14 13 14 16 17 18 17 16 15 15 14 14 14 13 12 11 10 9 8 7 6 6 5 4 3 4 5 6 7 6 5 4 2 3 2 3 3 3 2
20 17 16 17 15 14 14 15 16 17 17 16 14 14 13 13 12 12 11 10 8 7 6 5 3 2 2 2 2 4 5 6 6 7 6 4 4 3 3 4 5 4 4
20 18 15 16 15 14 13 14 14 15 15 14 13 13 13 12 11 9 8 7 6 5 3 1 0 1 2 3 5 6 7 8 8 8 6 4 6 6 5 5 6 6 6
19 18 15 14 14 14 13 13 13 13 13 13 12 12 12 10 9 7 6 5 4 3 2 2 2 3 4 5 6 7 7 9 8 8 6 5 8 8 9 9 8 8 8
18 18 17 15 14 13 12 13 12 13 13 12 12 11 10 9 7 6 5 3 3 3 3 4 4 5 6 7 8 9 10 11 8 9 8 8 10 11 11 12 12 10 9
17 18 18 17 15 14 13 13 13 12 11 11 10 10 9 7 6 6 6 5 4 5 5 6 7 8 9 9 10 10 11 8 9 9 9 11 13 12 13 14 15 13 12
21 20 19 18 17 15 13 12 12 11 10 10 10 10 9 8 7 6 6 6 6 6 7 7 9 11 9 7 8 10 8 9 10 10 10 12 11 12 13 14 15 17 16
22 20 20 18 17 16 15 14 13 12 12 11 11 10 9 8 7 7 6 5 6 7 7 9 10 9 8 8 9 9 10 10 9 11 10 12 13 13 12 13 16 19 20
20 20 19 18 17 17 16 15 14 16 14 13 14 12 9 10 8 8 7 6 7 6 8 9 10 10 11 11 11 11 10 9 9 9 10 13 15 14 13 13 15 20 22
20 20 20 20 19 19 21 16 15 17 16 13 13 12 11 10 9 9 8 7 7 8 10 11 10 11 11 12 11 12 10 10 9 8 9 14 13 11 13 16 16 16 22
21 22 22 23 21 20 22 20 16 16 13 12 10 10 12 11 11 9 8 7 8 9 9 9 9 11 11 11 12 10 9 9 10 11 8 10 12 15 19 18 14 13 18
24 23 26 25 23 23 22 21 17 14 13 11 10 12 13 12 12 12 9 8 8 9 11 10 10 12 11 10 10 9 9 10 10 10 9 10 13 17 16 14 15 15 15
24 26 24 23 23 25 23 22 17 14 14 12 10 11 11 13 13 12 10 10 9 8 6 5 6 7 6 7 10 10 10 11 11 10 10 10 11 12 13 13 15 18 17
28 27 27 24 22 22 22 19 19 16 14 12 11 11 11 12 15 11 9 8 7 7 4 5 5 6 8 9 12 12 10 10 9 8 6 9 10 11 12 17 21 20 20
27 29 30 27 24 24 19 18 13 12 14 13 11 13 13 9 11 8 6 6 6 5 3 3 6 6 7 8 12 11 10 9 5 2 10 9 10 12 11 16 18 15 20
24 26 29 29 31 28 23 19 14 15 12 10 7 8 8 6 7 8 7 7 6 5 4 3 4 4 3 8 8 8 5 3 3 8 8 9 13 14 14 15 15 16 15
23 27 28 32 33 32 24 21 14 15 12 10 7 7 7 8 8 9 9 8 6 5 4 3 1 1 2 6 5 4 3 2 3 10 8 11 14 15 15 15 15 14 12
21 25 27 30 29 31 26 21 17 17 13 11 10 10 11 10 11 13 12 11 9 7 6 5 6 4 5 4 8 5 3 3 10 4 8 12 15 14 16 17 17 14 10
18 19 23 25 25 27 29 24 27 22 18 12 16 13 13 13 12 12 13 13 12 10 9 8 8 7 4 5 1 5 4 4 3 5 9 11 17 13 15 17 18 13 10
13 16 19 21 23 24 26 23 23 18 14 18 18 19 15 16 15 15 16 16 14 10 10 9 8 7 5 4 4 3 2 2 3 6 8 14 16 14 15 13 13 15 16
13 14 17 19 20 21 22 23 24 23 23 22 19 19 16 17 15 15 15 14 13 11 9 8 7 7 6 5 4 5 5 3 6 4 6 15 15 13 18 12 11 14 16
Wind_Direction
160 161 167 154 148 141 134 128 126 126 127 127 126 120 115 113 112 110 110 111 107 102 101 102 103 100 97 94 91 89 89 87 93 89 82 86 87 88 89 88 87 90 86
159 160 164 158 149 140 134 129 126 126 125 122 120 117 117 115 116 116 114 110 107 109 109 109 106 104 98 94 88 85 81 75 77 84 89 86 94 96 97 90 98 107 106
158 159 160 154 148 141 135 131 126 127 125 125 121 121 122 123 124 126 120 115 114 117 117 115 110 105 96 90 83 77 72 58 62 64 73 80 84 107 108 115 106 111 112
153 154 152 154 151 144 140 136 133 130 126 124 125 127 127 127 127 126 122 121 120 117 118 116 110 102 94 86 76 68 59 49 35 28 52 67 83 109 135 136 143 130 130
152 154 152 156 152 145 141 137 135 134 130 130 131 130 131 131 129 127 125 124 122 120 120 119 115 105 94 82 64 46 37 28 16 10 325 5 77 321 143 164 174 146 130
151 152 155 156 153 147 142 141 139 138 135 135 136 136 135 136 133 131 129 129 128 125 123 120 113 102 87 65 39 27 9 2 12 350 322 252 220 265 209 198 188 203 161
152 155 157 162 158 154 149 147 144 143 140 141 144 142 142 140 141 138 136 137 135 135 130 124 116 90 57 22 348 342 339 332 336 340 337 222 228 276 261 231 231 228 227
156 159 164 166 166 161 156 154 151 148 146 147 147 148 147 148 145 143 142 140 145 149 150 169 204 355 322 322 322 322 323 320 323 323 329 261 255 275 267 262 246 236 227
163 163 166 168 172 170 168 164 161 156 156 156 156 156 156 155 156 156 157 158 166 167 209 245 287 305 309 308 310 312 315 312 309 304 307 275 275 276 267 253 252 243 233
168 171 173 175 175 176 173 173 170 168 170 170 168 169 165 171 174 181 186 207 221 234 264 286 307 311 313 314 314 315 317 319 305 305 297 282 287 277 273 256 251 250 240
178 182 182 183 185 183 178 179 179 180 182 183 184 183 182 190 196 212 224 228 251 274 293 306 311 313 314 319 317 317 317 305 312 308 305 306 301 287 279 267 253 251 243
185 187 189 190 188 188 185 180 183 185 190 194 198 195 199 207 205 217 236 245 264 283 297 310 314 316 325 312 311 324 310 304 306 302 306 314 316 300 285 272 261 248 248
185 188 192 194 194 193 189 190 190 193 198 205 206 206 210 218 223 231 246 254 265 289 303 308 306 306 305 309 306 305 305 303 299 296 290 301 306 303 298 288 270 255 248
192 192 194 196 197 199 196 197 201 202 203 211 215 215 218 225 234 239 245 254 267 280 296 302 301 296 303 301 302 304 306 304 299 302 290 296 310 303 296 301 279 263 256
198 197 197 197 200 203 204 202 204 213 216 218 225 224 224 235 241 246 257 262 270 290 301 300 296 295 301 302 303 303 306 307 305 304 302 305 309 303 298 302 289 267 257
203 201 199 203 205 205 207 206 209 215 219 223 228 228 237 240 247 248 252 262 270 281 293 293 291 292 294 297 299 301 304 304 305 307 304 308 303 302 304 299 293 285 257
206 204 203 202 206 210 209 210 212 217 220 225 231 239 243 250 251 250 247 255 269 273 278 284 288 288 291 294 288 294 300 300 301 299 299 294 301 304 302 301 298 295 279
207 210 207 206 208 211 210 211 213 220 226 233 242 251 254 251 256 254 258 262 266 268 264 279 293 287 287 293 294 293 291 293 292 291 300 310 311 310 309 303 307 306 293
211 213 214 211 210 209 213 210 218 228 236 237 245 260 260 259 257 254 258 257 245 238 248 258 281 296 296 300 301 296 290 292 293 301 332 334 332 327 311 304 309 306 299
216 218 218 216 213 211 208 208 207 214 230 238 246 262 263 255 232 206 222 237 222 205 222 243 267 275 288 307 304 293 293 296 311 20 349 348 345 343 327 315 311 304 306
213 208 213 210 214 206 198 188 198 207 213 225 227 218 222 192 178 168 184 179 171 167 182 222 261 280 306 337 319 315 316 337 12 356 1 4 357 347 336 331 322 304 308
209 207 206 207 212 208 199 193 193 186 197 195 190 185 181 172 161 160 162 160 164 148 151 152 169 300 14 10 346 318 344 341 338 339 356 353 349 344 346 341 332 314 301
215 209 206 205 203 202 192 179 173 177 171 166 165 154 150 156 156 154 154 150 143 126 109 84 70 74 45 55 40 1 323 332 331 303 331 342 346 346 352 351 346 334 303
214 212 207 201 196 193 188 184 184 181 171 177 163 154 144 147 143 142 138 132 129 118 113 92 79 74 60 54 52 42 28 334 330 317 324 330 341 344 348 354 359 2 341
203 197 193 190 189 187 186 186 181 177 174 158 156 153 143 136 135 133 130 125 120 113 104 95 84 77 74 78 65 33 14 346 338 306 309 327 330 337 346 353 7 13 9
182 178 174 172 179 182 181 181 179 174 161 154 156 148 147 138 134 133 125 120 114 105 100 94 90 82 85 83 72 59 45 9 346 340 315 325 320 330 329 342 355 5 3